AirNav   Everest Fuels
 
 1466 users online  

NH80 Shanklin Heliport
Wilton, New Hampshire, USA

GOING TO WILTON?


FAA INFORMATION EFFECTIVE 31 DECEMBER 2020

Location

FAA Identifier: NH80
Lat/Long: 42-49-32.5560N 071-44-28.1400W
42-49.542600N 071-44.469000W
42.8257100,-71.7411500
(estimated)
Elevation: 820 ft. / 250 m (estimated)
Variation: 16W (1990)
From city: 1 mile SW of WILTON, NH
Time zone: UTC -5 (UTC -4 during Daylight Saving Time)
Zip code: 03086

Heliport Operations

Heliport use: Private use. Permission required prior to landing
Activation date: 02/1993
Control tower: no
ARTCC: BOSTON CENTER
FSS: BANGOR FLIGHT SERVICE STATION
Attendance: UNATNDD
Wind indicator: yes
Segmented circle: no

Heliport Communications

WX AWOS-3PT at ASH (10 nm E): 125.1 (603-578-0473)
WX ASOS at AFN (12 nm W): 135.875 (603-532-6195)
WX ASOS at MHT (15 nm NE): 119.55 (603-621-1766)
WX ASOS at FIT (16 nm S): 135.175 (978-343-9121)

Nearby radio navigation aids

VOR radial/distance  VOR name  Freq  Var
MHTr276/16.5MANCHESTER VOR/DME114.4015W
GDMr054/21.8GARDNER VOR/DME110.6014W
EENr100/24.3KEENE VORTAC109.4014W
CONr212/24.7CONCORD VOR/DME112.9015W
LWMr295/28.9LAWRENCE VOR/DME112.5015W

 
NDB name  Hdg/Dist  Freq  Var  ID
FITZY271/9.620915WMJ -- .---

Heliport Services

Runway Information

Helipad H1

Dimensions: 15 x 15 ft. / 5 x 5 m
Surface: asphalt
Traffic pattern: leftleft

Heliport Ownership and Management from official FAA records

Ownership: Privately-owned
Owner: NORMAN D SHANKLIN
260 ABBOT HILL RD
WILTON, NH 03086
Phone 603-654-2298
Manager: NORMAN D SHANKLIN
260 ABBOT HILL RD
WILTON, NH 03086
Phone 603-654-2298

Additional Remarks

FOR CD CTC BOSTON APCH AT 603-594-5551.

Instrument Procedures

There are no published instrument procedures at NH80.

Some nearby airports with instrument procedures:

KASH - Boire Field Airport (10 nm E)
KAFN - Jaffrey/Silver Ranch Airport (12 nm W)
KMHT - Manchester Airport (15 nm NE)
KFIT - Fitchburg Municipal Airport (16 nm S)
KGDM - Gardner Municipal Airport (21 nm SW)
 
Loc | Ops | Rwys | IFR | FBO | Links
Com | Nav | Svcs | Stats | Notes
Area around NH80 (Shanklin Heliport)
 
Road maps at: MapQuest Bing Google
 
Aerial photo
No photo
 
Sectional chart

 
Airport distance calculator
Flying to Shanklin Heliport? Find the distance to fly.

From to NH80

Sunrise and sunset
Times for 15-Jan-2021
 Local
(UTC-5)
 Zulu
(UTC)
Morning civil twilight06:4511:45
Sunrise07:1612:16
Sunset16:3721:37
Evening civil twilight17:0822:08

Current date and time
Zulu (UTC)  15-Jan-2021 19:24:29
Local (UTC-5)  15-Jan-2021 14:24:29
 
METAR
KASH 
10nm E 
151856Z 08009KT 10SM SCT037 06/M03 A3005 RMK AO2 SLP182 T00611033
KAFN 
11nm W 
151852Z AUTO VRB04KT 10SM SCT024 03/M03 A3001 RMK AO2 SLP176 T00331033
KMHT 
15nm NE 
151853Z 13009KT 10SM FEW030 BKN250 06/M04 A3004 RMK AO2 SLP189 T00611044
KFIT 
17nm S 
151852Z AUTO 11008KT 10SM BKN033 05/M02 A3004 RMK AO2 SLP177 T00501022
TAF
KMHT 
15nm NE 
151742Z 1518/1618 11005KT P6SM SCT045 BKN200 FM160200 07007KT P6SM OVC025 FM160800 06010KT 3SM -SNRA BR OVC012 FM161200 06014G22KT 3SM RA BR OVC005
NOTAMs
Click for the latest NOTAMs
NOTAMs are issued by the DoD/FAA and will open in a separate window not controlled by AirNav.

 

 
 

Would you like to see your business listed on this page?

 If your business provides an interesting product or service to pilots, flight crews, aircraft, or users of the Shanklin Heliport, you should consider listing it here.  To start the listing process, click on the button below
 
Add a business
 

Other Pages about Shanklin Heliport

Update a link
 
Copyright © AirNav, LLC. All rights reserved. Privacy Policy  Contact